Terminal Aerodrome Forecast
Issued by NWS Omaha/Valley, NE

Home | Current Version | Previous Version | Graphics & Text | Print | Product List | Glossary On
Versions: 1 2 3 4 5 6 7 8 9 10 11 12 13 14 15 16 17 18 19 20
000
FTUS43 KOAX 220520
TAFOFK
TAF
KOFK 220520Z 2206/2306 20009KT P6SM BKN250
      TEMPO 2206/2208 3SM TSRA BKN025CB
     FM220900 VRB06KT P6SM BKN200=

USA.gov is the U.S. government's official web portal to all federal, state and local government web resources and services.